Location: Kazanice
(53.5528°N, 19.7258°E)
Time: 10:20:33
(UTC+01:00)

ISS - Pass Details

Date: 24 January 2019
Orbit: 403 x 411 km, 51.6° (Epoch: 21 February)

Event Time Altitude Azimuth Distance (km) Brightness Sun altitude
Rises 17:43:05 0° 197° (SSW) 2,326 0.5 -13.8°
Reaches altitude 10° 17:46:10 10° 165° (SSE) 1,473 -1.0 -14.3°
Maximum altitude 17:47:33 12° 141° (SE) 1,354 -1.4 -14.5°
Enters shadow 17:47:44 12° 137° (SE) 1,357 -1.5 -14.5°
